WFDK1: Walnut River, Winfield, KS

                                SHEF ID:       WFDK1     WALNUT R AT WINFIELD, KS
STATION TYPE:
Regulating: Stage = 18.00, Flow = 18601

PRECIP STAGE RIV-FLOW BAT-LOAD
in ft cfs volt
Ccp-Rev Ccp-Rev Ccp-Rev Ccp-Rev
(America/Chicago)
04/27 00:00 0.00 2.59 768 12.11
04/27 01:00 0.01 2.57 757 12.09
04/27 02:00 0.01 2.54 741 12.08
04/27 03:00 0.00 2.52 731 12.06
04/27 04:00 0.00 2.50 720 12.04
04/27 05:00 0.00 2.48 710 12.03
04/27 06:00 0.00 2.47 705 12.01
04/27 07:00 0.00 2.46 700 12.01
04/27 08:00 0.00 2.44 690 12.00
04/27 09:00 0.00 2.44 690 12.08
04/27 10:00 0.00 2.42 679 12.60
04/27 11:00 0.00 2.41 674 12.62
04/27 12:00 0.00 2.39 664 12.76
04/27 13:00 0.00 2.38 659 12.76
04/27 14:00 0.00 2.35 644 12.63
04/27 15:00 0.00 2.34 639 12.66
04/27 16:00 0.00 2.32 629 12.57
04/27 17:00 0.00 2.29 615 12.57
04/27 18:00 0.00 2.28 610 12.36
04/27 19:00 0.00 2.26 600 12.23
04/27 20:00 0.00 2.23 586 12.18
04/27 21:00 0.00 2.21 576 12.13
04/27 22:00 0.00 2.19 567 12.14
04/27 23:00 0.00 2.16 553 12.13
Data processed at Tue 28Apr2026 04:06 GMT

NOTICE: If you are parsing this page

Please convert to using our Data API. Starting early 2026 we will be migrating to: https://water.usace.army.mil with modern pages rendered in JavaScript. When this migration completes you will no longer be able to scrape this page! CWMSDataAPI (CDA)

Timeseries IDs (TSIDs)

TSIDs used from left to right in the data table
WINF.Precip-Inc.Total.1Hour.1Hour.Ccp-Rev
WINF.Stage.Inst.1Hour.0.Ccp-Rev
WINF.Flow.Inst.1Hour.0.Ccp-Rev
WINF.Volt-Battery Load.Inst.1Hour.0.Ccp-Rev

                            

All information presented herein is the property of the government of the United States of America and may be revised or deleted at any time without prior notice. Dissemination of this information without the expressed written consent of the Public Affairs Office, Tulsa District U.S. Army Corps of Engineers is strictly prohibited. These data are gathered electronically and, as presented, have NOT undergone any form of quality control. These data are NOT guaranteed to be valid or correct.